DW2028 Weather Reports


time (UTC)temp
C
wind
direction
speed
KPH
gust
KPH
rain 1hr
cm
rain 24hr
cm
rain mn
cm
humidity
%
barometer
mb
20260510142315 23 38 4.8 16.1 0.00 4.85 0.03 89 1014.2
20260510141822 22 71 4.8 16.1 0.00 4.85 0.03 89 1014.2
20260510141325 22 71 9.7 16.1 0.00 4.85 0.03 89 1014.2
20260510140828 22 74 6.4 11.3 0.00 4.85 0.03 91 1014.2
20260510140310 22 55 8.0 11.3 0.00 4.85 0.03 91 1014.0
20260510135813 22 58 4.8 12.9 0.00 4.85 0.03 91 1014.0
20260510135316 22 91 8.0 12.9 0.00 4.85 0.03 93 1014.0
20260510134820 21 37 3.2 8.0 0.00 4.85 0.03 94 1014.2
20260510134323 21 86 4.8 8.0 0.00 4.85 0.03 94 1014.2
20260510133826 21 78 3.2 8.0 0.00 4.85 0.03 95 1014.2
20260510133312 21 103 3.2 6.4 0.00 4.85 0.03 94 1013.8
20260510132816 21 49 3.2 8.0 0.00 5.38 0.03 95 1013.8
20260510132340 21 44 6.4 8.0 0.00 5.38 0.03 95 1013.8
20260510131846 21 86 4.8 6.4 0.00 5.38 0.03 95 1013.7
20260510131329 20 77 3.2 6.4 0.00 5.38 0.03 95 1013.7
20260510130812 20 94 1.6 6.4 0.00 5.38 0.03 95 1013.7
20260510130314 20 56 1.6 8.0 0.00 5.38 0.03 95 1013.3
20260510125818 20 86 4.8 8.0 0.00 5.38 0.03 95 1013.3
20260510125320 20 77 4.8 9.7 0.00 5.38 0.03 95 1013.3
20260510124824 20 79 6.4 9.7 0.00 5.38 0.03 95 1013.2
20260510124309 20 92 3.2 8.0 0.00 5.38 0.03 95 1013.2
20260510123812 20 75 3.2 8.0 0.00 5.38 0.03 95 1013.2
20260510123335 20 83 4.8 9.7 0.00 5.38 0.03 95 1012.8
20260510122837 20 81 4.8 9.7 0.00 5.38 0.03 95 1012.8
20260510122339 20 83 3.2 8.0 0.00 5.38 0.03 95 1012.8
20260510121821 20 98 6.4 9.7 0.00 5.38 0.03 95 1012.7
20260510121345 20 126 3.2 9.7 0.00 5.38 0.03 95 1012.7
20260510120811 20 111 4.8 8.0 0.00 5.38 0.03 95 1012.7
20260510120314 20 90 1.6 8.0 0.00 5.38 0.03 95 1012.6
20260510115817 20 89 4.8 8.0 0.00 5.38 0.03 95 1012.6
20260510115320 20 88 6.4 8.0 0.00 5.38 0.03 95 1012.6
20260510114823 20 61 3.2 8.0 0.00 5.38 0.03 95 1012.2
20260510114325 20 72 4.8 6.4 0.00 5.38 0.03 95 1012.2
20260510113829 20 105 4.8 6.4 0.00 5.38 0.03 95 1012.2
20260510113311 20 111 0.0 4.8 0.00 5.38 0.03 95 1012.0
20260510112817 20 107 3.2 6.4 0.00 5.38 0.03 95 1012.0
20260510112321 20 111 3.2 8.0 0.00 5.38 0.03 95 1012.0
20260510111809 20 93 3.2 8.0 0.00 5.38 0.03 95 1011.7
20260510111315 20 81 4.8 8.0 0.00 5.38 0.03 95 1011.7
20260510110819 20 86 4.8 6.4 0.00 5.38 0.03 95 1011.7
20260510110324 20 57 3.2 4.8 0.00 5.38 0.03 95 1011.4
20260510105846 20 76 1.6 4.8 0.00 5.38 0.03 95 1011.4
20260510105311 20 84 3.2 4.8 0.00 5.38 0.03 95 1011.4
20260510104814 20 83 1.6 4.8 0.00 5.38 0.03 95 1011.1
20260510104317 20 84 3.2 6.4 0.00 5.38 0.03 95 1011.1
20260510103820 20 97 1.6 6.4 0.00 5.38 0.03 95 1011.1
20260510103323 19 96 3.2 6.4 0.00 5.38 0.03 95 1010.8
20260510102826 19 107 1.6 6.4 0.00 5.38 0.03 95 1010.8
20260510102311 19 93 3.2 3.2 0.00 5.38 0.03 95 1010.8
20260510101819 19 115 1.6 3.2 0.00 5.38 0.03 95 1010.7
20260510101323 19 107 1.6 3.2 0.00 5.38 0.03 95 1010.7
20260510100827 19 100 1.6 3.2 0.00 5.38 0.03 95 1010.7
20260510100309 19 90 0.0 3.2 0.00 5.38 0.03 95 1010.7
20260510095812 19 90 0.0 3.2 0.00 5.38 0.03 95 1010.7
20260510095338 19 90 0.0 3.2 0.00 5.38 0.03 95 1010.7
20260510094820 19 90 1.6 4.8 0.00 5.38 0.03 95 1010.7
20260510094346 19 71 0.0 4.8 0.00 5.38 0.03 95 1010.7
20260510093828 18 34 1.6 4.8 0.00 5.38 0.03 95 1010.6
20260510093331 18 54 1.6 3.2 0.00 5.38 0.03 94 1010.6
20260510092834 18 71 0.0 3.2 0.00 5.38 0.03 94 1010.6
20260510092339 18 71 0.0 0.0 0.00 5.38 0.03 94 1010.6
20260510091821 18 71 0.0 0.0 0.00 5.38 0.03 94 1010.5
20260510091347 19 71 0.0 3.2 0.00 5.38 0.03 94 1010.5
20260510090809 19 71 0.0 3.2 0.00 5.38 0.03 94 1010.5
20260510090313 19 71 0.0 3.2 0.00 5.38 0.03 94 1010.5
20260510085822 19 71 0.0 3.2 0.00 5.38 0.03 94 1010.5
20260510085324 19 71 0.0 3.2 0.00 5.38 0.03 94 1010.5
20260510084828 19 71 0.0 3.2 0.00 5.38 0.03 94 1010.5
20260510084331 19 54 0.0 3.2 0.00 5.38 0.03 94 1010.5
20260510083816 19 37 0.0 3.2 0.00 5.38 0.03 94 1010.5
20260510083320 19 37 0.0 3.2 0.00 5.38 0.03 94 1010.5
20260510082823 19 38 1.6 3.2 0.00 5.38 0.03 94 1010.5
20260510082346 19 69 0.0 3.2 0.00 5.38 0.03 94 1010.5
20260510081828 19 39 1.6 3.2 0.00 5.38 0.03 94 1010.1
20260510081330 19 47 0.0 3.2 0.00 5.38 0.03 94 1010.1
20260510080812 19 65 0.0 4.8 0.00 5.38 0.03 94 1010.1
20260510080336 19 57 1.6 3.2 0.03 5.38 0.03 94 1010.1
20260510075818 19 40 1.6 3.2 0.03 5.38 0.03 94 1010.1
20260510075322 19 47 1.6 3.2 0.03 5.38 0.03 94 1010.1
20260510074845 19 58 0.0 3.2 0.03 5.38 0.03 94 1010.0
20260510074310 19 58 0.0 3.2 0.03 5.38 0.03 94 1010.0
20260510073813 19 59 1.6 3.2 0.03 5.38 0.03 94 1010.0
20260510073317 19 65 1.6 3.2 0.03 5.38 0.03 94 1009.9
20260510072820 19 66 0.0 3.2 0.03 5.38 0.03 94 1009.9
20260510072323 19 66 0.0 3.2 0.03 5.38 0.03 94 1009.9
20260510071846 19 66 0.0 3.2 0.03 5.38 0.03 94 1009.8
20260510071310 20 66 0.0 3.2 0.03 5.38 0.03 94 1009.8
20260510070813 20 66 0.0 4.8 0.03 5.38 0.03 94 1009.8
20260510070317 20 47 1.6 4.8 0.00 5.36 0.00 94 1009.9
20260510065821 20 52 1.6 6.4 0.00 5.36 0.00 94 1009.9
20260510065325 20 25 3.2 6.4 0.00 5.36 0.00 94 1009.9
20260510064829 20 18 3.2 4.8 0.00 5.36 0.00 94 1009.9
20260510064315 20 54 1.6 3.2 0.00 5.36 0.00 94 1009.9
20260510063819 20 67 0.0 3.2 0.00 5.36 0.00 94 1009.9
20260510063321 20 61 1.6 3.2 0.00 5.36 0.00 94 1010.1
20260510062824 20 87 1.6 3.2 0.00 5.36 0.00 94 1010.1
20260510062310 20 51 1.6 4.8 0.00 5.36 0.00 94 1010.1
20260510061813 20 44 1.6 3.2 0.00 5.36 0.00 94 1009.9
20260510061320 20 55 1.6 3.2 0.00 5.36 0.00 94 1009.9
20260510060823 20 54 1.6 3.2 0.00 5.36 0.00 94 1009.9
20260510060347 20 52 0.0 3.2 0.00 5.36 0.00 94 1010.1
20260510055829 20 48 1.6 3.2 0.00 5.36 0.00 93 1010.1
20260510055311 20 57 1.6 3.2 0.00 5.36 0.00 94 1010.1
20260510054814 20 57 0.0 3.2 0.00 5.36 0.00 94 1009.9
20260510054325 20 57 0.0 3.2 0.00 5.36 0.00 94 1009.9
20260510053848 20 61 1.6 3.2 0.00 5.36 0.00 94 1009.9
20260510053330 20 38 1.6 3.2 0.00 5.36 0.00 94 1009.5
20260510052812 20 46 1.6 3.2 0.00 5.36 0.00 94 1009.5
20260510052316 20 93 1.6 3.2 0.00 5.36 0.00 94 1009.5
20260510051819 20 115 1.6 3.2 0.00 5.36 0.00 94 1009.6
20260510051342 20 124 0.0 3.2 0.00 5.36 0.00 94 1009.6
20260510050824 20 151 0.0 3.2 0.00 5.36 0.00 94 1009.6
20260510050327 20 151 0.0 3.2 0.00 5.36 5.36 94 1009.9
20260510045810 20 140 0.0 3.2 0.00 5.36 5.36 94 1009.9
20260510045313 20 148 0.0 3.2 0.00 5.36 5.36 94 1009.9
20260510044817 21 131 0.0 3.2 0.00 5.36 5.36 94 1010.0
20260510044320 21 131 1.6 3.2 0.00 5.36 5.36 94 1010.0
20260510043824 20 151 0.0 3.2 0.00 5.36 5.36 94 1010.0
20260510043311 20 159 0.0 1.6 0.00 5.36 5.36 94 1009.9
20260510042814 20 159 0.0 3.2 0.00 5.36 5.36 94 1009.9
20260510042317 20 159 0.0 3.2 0.00 5.36 5.36 94 1009.9
20260510041819 20 161 0.0 3.2 0.00 5.36 5.36 94 1010.0
20260510041343 20 161 1.6 3.2 0.00 5.36 5.36 94 1010.0
20260510040824 20 155 1.6 3.2 0.00 5.36 5.36 94 1010.0
20260510040327 20 154 0.0 3.2 0.00 5.36 5.36 94 1010.3
20260510035810 20 273 0.0 3.2 0.00 5.36 5.36 94 1010.3
20260510035313 20 162 1.6 3.2 0.00 5.36 5.36 95 1010.3
20260510034820 20 163 1.6 3.2 0.00 5.36 5.36 94 1010.9
20260510034324 20 152 0.0 3.2 0.00 5.36 5.36 94 1010.9
20260510033813 20 152 0.0 3.2 0.00 5.36 5.36 94 1010.9
20260510033316 20 152 0.0 1.6 0.00 5.36 5.36 94 1011.2
20260510032819 20 152 0.0 0.0 0.00 5.36 5.36 94 1011.2
20260510032322 20 152 0.0 0.0 0.00 5.36 5.36 94 1011.2
20260510031826 20 152 0.0 0.0 0.00 5.36 5.36 94 1011.2
20260510031329 20 152 0.0 0.0 0.00 5.36 5.36 94 1011.2
20260510030811 20 152 0.0 0.0 0.00 5.36 5.36 94 1011.2
20260510030314 20 152 0.0 1.6 0.00 5.36 5.36 94 1011.1
20260510025817 20 152 0.0 1.6 0.00 5.36 5.36 94 1011.1
20260510025320 20 152 0.0 0.0 0.00 5.36 5.36 94 1011.1
20260510024823 20 152 0.0 0.0 0.00 5.36 5.36 94 1011.0
20260510024310 20 152 0.0 0.0 0.00 5.36 5.36 94 1011.0
20260510023815 20 152 0.0 0.0 0.00 5.36 5.36 94 1011.0
20260510023317 20 152 0.0 0.0 0.00 5.36 5.36 94 1010.8
20260510022822 20 152 0.0 0.0 0.00 5.36 5.36 94 1010.8
20260510022324 20 152 0.0 0.0 0.00 5.36 5.36 94 1010.8
20260510021810 20 152 0.0 0.0 0.00 5.36 5.36 94 1010.5
20260510021313 20 152 0.0 0.0 0.00 5.36 5.36 94 1010.5
20260510020819 20 152 0.0 0.0 0.00 5.36 5.36 94 1010.5
20260510020322 20 152 0.0 3.2 0.00 5.36 5.36 94 1010.3
20260510015825 20 152 0.0 3.2 0.00 5.36 5.36 94 1010.3
20260510015328 20 152 0.0 3.2 0.00 5.36 5.36 94 1010.3
20260510014814 20 152 0.0 3.2 0.00 5.36 5.36 94 1010.4
20260510014317 20 152 0.0 3.2 0.00 5.36 5.36 94 1010.4
20260510013821 20 152 0.0 3.2 0.00 5.36 5.36 94 1010.4
20260510013325 20 138 0.0 3.2 0.00 5.36 5.36 94 1010.0
20260510012829 20 141 0.0 3.2 0.00 5.36 5.36 94 1010.0
20260510012311 20 125 1.6 3.2 0.00 5.36 5.36 94 1010.0
20260510011817 20 131 1.6 3.2 0.03 5.36 5.36 94 1009.9
20260510011320 20 159 1.6 3.2 0.03 5.36 5.36 94 1009.9
20260510010824 20 153 1.6 3.2 0.03 5.36 5.36 94 1009.9
20260510010328 20 146 0.0 3.2 0.03 5.36 5.36 94 1009.8
20260510005831 20 154 0.0 3.2 0.03 5.36 5.36 94 1009.8
20260510005312 20 155 0.0 3.2 0.03 5.36 5.36 94 1009.8
20260510004819 20 143 1.6 3.2 0.03 5.36 5.36 94 1009.9
20260510004323 20 138 0.0 3.2 0.05 5.36 5.36 94 1009.9
20260510003846 20 157 0.0 3.2 0.05 5.36 5.36 94 1009.9
20260510003309 20 167 0.0 4.8 0.05 5.36 5.36 94 1009.7
20260510002813 20 147 0.0 4.8 0.05 5.36 5.36 94 1009.7
20260510002336 20 156 1.6 4.8 0.05 5.36 5.36 94 1009.7
20260510001817 20 156 0.0 3.2 0.03 5.33 5.33 94 1009.8
20260510001321 20 148 0.0 3.2 0.03 5.33 5.33 94 1009.8
20260510000824 20 141 1.6 3.2 0.05 5.33 5.33 94 1009.8
20260510000328 20 161 1.6 3.2 0.08 5.33 5.33 94 1009.7
20260509235811 20 161 0.0 3.2 0.10 5.33 5.33 94 1009.7
20260509235314 20 157 0.0 3.2 0.13 5.33 5.33 94 1009.7
20260509234817 20 147 0.0 3.2 0.15 5.33 5.33 94 1009.9
20260509234324 20 163 1.6 3.2 0.15 5.31 5.31 94 1009.9
20260509233827 20 141 0.0 3.2 0.15 5.31 5.31 94 1009.9
20260509233309 20 178 1.6 3.2 0.15 5.31 5.31 94 1009.8
20260509232813 21 204 0.0 3.2 0.15 5.31 5.31 94 1009.8
20260509232317 21 205 0.0 3.2 0.15 5.31 5.31 94 1009.8
20260509231821 20 120 0.0 3.2 0.15 5.31 5.31 94 1009.9
20260509231345 20 110 1.6 3.2 0.15 5.31 5.31 94 1009.9
20260509230806 20 115 1.6 3.2 0.13 5.28 5.28 94 1009.9
20260509230312 20 145 0.0 3.2 0.10 5.26 5.26 94 1009.9
20260509225818 20 145 0.0 3.2 0.10 5.23 5.23 94 1009.9
20260509225321 20 145 0.0 3.2 0.08 5.21 5.21 94 1009.9
20260509224824 20 144 0.0 3.2 0.05 5.18 5.18 94 1009.6
20260509224330 20 127 0.0 3.2 0.03 5.16 5.16 93 1009.6
20260509223813 20 148 0.0 3.2 0.05 5.16 5.16 93 1009.6
20260509223339 20 196 0.0 3.2 0.05 5.16 5.16 93 1009.6
20260509222821 20 202 0.0 3.2 0.08 5.28 5.16 93 1009.6
20260509222326 20 213 0.0 3.2 0.10 5.28 5.16 93 1009.6
20260509221809 20 144 0.0 3.2 0.10 5.28 5.16 93 1009.2
20260509221332 20 144 0.0 3.2 0.10 5.28 5.16 93 1009.2
20260509220814 20 113 0.0 3.2 0.10 5.28 5.16 93 1009.2
20260509220341 20 90 1.6 3.2 0.10 5.28 5.16 93 1009.2
20260509215823 20 338 0.0 3.2 0.10 5.28 5.16 93 1009.2
20260509215327 20 337 0.0 3.2 0.08 5.26 5.13 93 1009.2
20260509214811 20 263 0.0 1.6 0.08 5.26 5.13 93 1009.5
20260509214314 20 263 0.0 1.6 0.08 5.26 5.13 93 1009.5
20260509213837 20 155 0.0 0.0 0.08 5.26 5.13 93 1009.5
20260509213320 20 155 0.0 3.2 0.05 5.23 5.11 93 1009.6
20260509212827 20 155 0.0 3.2 0.03 7.09 5.08 93 1009.6
20260509212309 20 155 0.0 1.6 0.00 7.06 5.05 93 1009.6
20260509211813 20 155 0.0 3.2 0.00 7.06 5.05 93 1009.1
20260509211317 20 138 1.6 4.8 0.00 7.06 5.05 93 1009.1
20260509210821 20 134 0.0 6.4 0.00 7.06 5.05 93 1009.1
20260509210328 20 119 1.6 6.4 0.00 7.06 5.05 93 1008.9
20260509205811 20 121 1.6 9.7 0.00 7.06 5.05 93 1008.9
20260509205313 20 131 3.2 9.7 0.00 7.06 5.05 93 1008.9
20260509204816 20 161 1.6 11.3 0.03 7.06 5.05 93 1009.0
20260509204340 20 155 4.8 11.3 0.03 7.06 5.05 93 1009.0
20260509203822 20 119 6.4 11.3 0.03 7.06 5.05 93 1009.0
20260509203309 20 103 4.8 11.3 0.05 7.06 5.05 94 1009.1
20260509202812 20 115 3.2 8.0 0.08 8.51 5.05 94 1009.1
20260509202318 20 136 1.6 8.0 0.10 8.51 5.05 94 1009.1
20260509201822 20 103 3.2 9.7 0.10 8.51 5.05 94 1009.6
20260509201346 20 116 6.4 9.7 0.13 8.51 5.05 94 1009.6
20260509200849 20 128 3.2 8.0 0.13 8.51 5.05 94 1009.6
20260509200310 20 138 6.4 8.0 0.15 8.51 5.05 94 1010.3
20260509195813 20 116 0.0 3.2 0.15 8.51 5.05 94 1010.3
20260509195336 20 109 0.0 3.2 0.18 8.51 5.05 94 1010.3
20260509194818 20 132 0.0 3.2 0.18 8.48 5.03 94 1010.2
20260509194322 20 119 0.0 3.2 0.18 8.48 5.03 94 1010.2
20260509193825 19 119 0.0 4.8 0.20 8.48 5.03 94 1010.2
20260509193310 19 117 3.2 4.8 0.20 8.46 5.00 94 1010.4
20260509192833 19 135 0.0 3.2 0.23 8.43 4.98 94 1010.4
20260509192315 19 134 1.6 4.8 0.23 8.41 4.95 94 1010.4
20260509191825 19 119 1.6 4.8 0.30 8.41 4.95 94 1010.8
20260509191349 19 117 1.6 3.2 0.43 8.38 4.93 94 1010.8
20260509190811 19 107 1.6 3.2 0.53 8.38 4.93 94 1010.8
20260509190315 19 148 0.0 1.6 0.51 8.36 4.90 94 1011.1
20260509185818 19 148 0.0 3.2 0.53 8.36 4.90 94 1011.1
20260509185322 19 148 0.0 3.2 0.53 8.33 4.88 94 1011.1
20260509184825 19 148 0.0 4.8 0.51 8.31 4.85 94 1010.2
20260509184328 19 145 1.6 4.8 0.53 8.31 4.85 94 1010.2
20260509183811 19 163 1.6 6.4 0.53 8.28 4.83 94 1010.2
20260509183314 19 131 3.2 6.4 0.53 8.26 4.80 94 1010.1
20260509182816 19 167 0.0 8.0 0.48 8.20 4.75 94 1010.1
20260509182320 19 140 1.6 8.0 0.48 8.18 4.72 94 1010.1
20260509181845 19 115 4.8 6.4 0.53 8.10 4.65 94 1011.3
20260509181311 19 93 0.0 3.2 0.61 7.95 4.50 94 1011.3
20260509180815 19 175 0.0 3.2 0.74 7.85 4.39 94 1011.3
20260509180319 19 155 1.6 4.8 0.81 7.85 4.39 94 1010.4
20260509175823 19 115 1.6 11.3 0.84 7.82 4.37 94 1010.4
20260509175347 18 104 3.2 11.3 0.91 7.80 4.34 94 1010.4
20260509174849 18 111 6.4 11.3 1.12 7.80 4.34 94 1010.3
20260509174311 18 157 1.6 11.3 1.40 7.77 4.32 94 1010.3
20260509173814 18 113 6.4 14.5 1.52 7.75 4.29 94 1010.3
20260509173321 18 96 4.8 11.3 1.57 7.72 4.27 94 1010.9
20260509172824 18 101 4.8 11.3 1.73 7.72 4.27 94 1010.9
20260509172307 18 62 6.4 11.3 1.85 7.70 4.24 94 1010.9
20260509171832 18 126 3.2 11.3 1.91 7.62 4.17 94 1011.5
20260509171317 18 102 1.6 11.3 1.75 7.34 3.89 93 1011.5
20260509170825 18 131 4.8 11.3 1.55 7.11 3.66 93 1011.5
20260509170311 18 71 4.8 14.5 1.50 7.04 3.58 93 1011.2
20260509165814 18 70 6.4 14.5 1.47 6.99 3.53 93 1011.2
20260509165338 18 73 4.8 16.1 1.47 6.88 3.43 93 1011.2
20260509164841 18 121 4.8 16.1 1.45 6.68 3.23 93 1011.5
20260509164324 19 48 6.4 17.7 1.22 6.40 2.95 93 1011.5
20260509163827 19 97 8.0 17.7 1.14 6.22 2.77 93 1011.5
20260509163310 19 92 3.2 9.7 1.19 6.15 2.69 93 1011.3
20260509162814 19 134 4.8 16.1 1.14 6.02 2.57 93 1011.3
20260509162320 19 147 6.4 16.1 1.12 5.87 2.41 93 1011.3
20260509161823 19 71 8.0 16.1 1.07 5.71 2.26 93 1011.2
20260509161346 19 84 11.3 16.1 0.97 5.59 2.13 93 1011.2
20260509160810 19 84 8.0 14.5 0.94 5.56 2.11 93 1011.2
20260509160317 19 82 6.4 17.7 0.91 5.54 2.08 93 1011.3
20260509155824 19 109 9.7 17.7 0.89 5.51 2.06 93 1011.3
20260509155308 19 101 8.0 14.5 0.79 5.41 1.96 93 1011.3
20260509154814 19 114 8.0 14.5 0.64 5.26 1.80 93 1011.3
20260509154321 20 79 4.8 17.7 0.56 5.18 1.73 92 1011.3
20260509153824 20 77 9.7 17.7 0.48 5.11 1.65 92 1011.3
20260509153350 20 75 3.2 16.1 0.36 4.98 1.52 92 1010.9
20260509152831 20 59 6.4 19.3 0.25 4.88 1.42 92 1010.9
20260509152313 20 62 4.8 19.3 0.15 4.78 1.32 92 1010.9
20260509151816 20 92 8.0 17.7 0.03 4.65 1.19 92 1010.9
20260509151319 20 73 4.8 17.7 0.00 4.62 1.17 92 1010.9
20260509150822 20 93 6.4 17.7 0.00 4.62 1.17 92 1010.9
20260509150325 20 58 9.7 24.1 0.03 4.62 1.17 92 1010.4
20260509145811 20 24 9.7 24.1 0.03 4.62 1.17 92 1010.4
20260509145314 20 83 11.3 20.9 0.05 4.62 1.17 92 1010.4
20260509144818 20 64 14.5 20.9 0.08 4.62 1.17 92 1010.7
20260509144322 20 61 4.8 19.3 0.20 4.62 1.17 92 1010.7
20260509143826 20 98 8.0 19.3 0.38 4.62 1.17 93 1010.7
20260509143311 20 80 9.7 19.3 0.56 4.62 1.17 93 1010.7
20260509142814 20 85 12.9 19.3 0.79 4.62 1.17 93 1010.7